Location: Unspecified
(0.0000°N, 0.0000°E)
Time: 14:23:05
(UTC+00:00)

Altair 2 - Visible Passes

Search period start: 11 October 2024 00:00
Search period end: 21 October 2024 00:00
Orbit: 523 x 2155 km, 81.3° (Epoch: 11 October)

Date Brightness Start Highest point End Pass type
(mag) Time Alt. Az. Time Alt. Az. Time Alt. Az.
11 Oct 10.1 03:53:07 10° NNE 04:04:40 45° E 04:15:08 10° SSE visible
12 Oct 9.4 04:15:10 10° N 04:27:33 69° E 04:38:29 10° SSE visible
13 Oct 11.1 02:49:18 10° NE 02:56:44 18° E 03:03:39 10° ESE visible
13 Oct 9.1 04:37:49 10° N 04:50:20 81° W 05:01:14 10° S visible
14 Oct 10.5 03:09:23 10° NNE 03:19:38 31° E 03:28:47 10° SE visible
14 Oct 9.2 05:01:02 10° NNW 05:12:58 54° W 05:23:21 10° SSW visible
15 Oct 9.8 03:30:44 10° NNE 03:42:29 49° E 03:52:37 10° SSE visible
16 Oct 9.2 03:52:50 10° N 04:05:16 75° E 04:15:41 10° S visible
17 Oct 10.8 02:26:20 10° NE 02:34:11 20° E 02:41:16 10° SE visible
17 Oct 8.9 04:15:30 10° N 04:27:53 75° W 04:38:09 10° S visible
18 Oct 10.2 02:46:36 10° NNE 02:57:01 33° E 03:05:56 10° SE visible
18 Oct 9.1 04:38:45 10° NNW 04:50:20 49° W 05:00:01 10° SSW visible
19 Oct 9.5 03:08:01 10° NNE 03:19:48 52° E 03:29:27 10° SSE visible
19 Oct 9.5 05:02:46 10° NW 05:12:37 30° W 05:21:07 10° SSW visible
20 Oct 11.1 01:46:06 10° ENE 01:48:20 11° E 01:50:29 10° E visible
20 Oct 8.9 03:30:07 10° N 03:42:26 80° E 03:52:15 10° S visible
